sat.trackr.live / text

‹ back to catalog

2024-094B

NORAD 59806 · 2024-094B

PAYLOAD ACTIVE UNKNOWN

§ Identity

Operator
Country
PRC
Launch date
2024-05-20
Launch site
TAISC
Launch vehicle
Mass (kg)
RCS (m²)

External: N2YO · Heavens-Above · Gunter

§ Orbital elements

Epoch: 2026-05-25T04:10:08.232960Z

Period
94.96 min
Inclination
97.3900°
Eccentricity
0.0004910
Mean motion
15.16403354 rev/d
Perigee alt
513.3 km
Apogee alt
520.1 km
Semi-major
6,894.9 km
B*
2.9461e-4
RAAN
216.7811°
Arg perigee
191.1499°
Mean anomaly
168.9626°
Rev number
11,167

§ Raw data

2024-094B1 59806U 24094B   26145.17370640  .00005660  00000+0  29461-3 0  99942 59806  97.3900 216.7811 0004910 191.1499 168.9626 15.16403354111678

JSON: /api/v1/satellites/59806 · /tle

For live sub-satellite position, see the globe view (requires WebGL).

§ Visibility from observer

Set your observer location to see the next 7 days of passes ≥ 10°. The values pass through the URL so the page stays shareable.

No JS? Fill the form by hand. The geolocation button needs JavaScript.